FGFBV LFLB-LFLB

Flight info

Callsign FGFBV
Flight time 0h 16m
Altitude 2000
Route DCT
Aircraft C172/L-S/7000 L

Departure

Time 2026-04-30 18:00
Airport Chambéry Aix les Bains airport (LFLB)

Arrival

Time 2026-04-30 18:16
Airport Chambéry Aix les Bains airport (LFLB)
Time Latitude Longitude Altitude Speed Heading
2026-04-30 17:46 45.64082 5.88265 772 ft 0 kts 85°
2026-04-30 17:55 45.64073 5.88155 772 ft 8 kts 356°
2026-04-30 17:56 45.64586 5.88111 769 ft 7 kts 358°
2026-04-30 17:57 45.64588 5.87958 769 ft 6 kts 177°
2026-04-30 17:58 45.64101 5.87997 772 ft 73 kts 177°
2026-04-30 17:59 45.62428 5.89476 1374 ft 94 kts 95°
2026-04-30 18:00 45.64427 5.91957 1593 ft 129 kts 359°
2026-04-30 18:00 45.67062 5.91917 1781 ft 124 kts
2026-04-30 18:01 45.68655 5.91104 1793 ft 125 kts 319°
2026-04-30 18:02 45.69414 5.87732 1555 ft 116 kts 245°
2026-04-30 18:02 45.67891 5.88539 1368 ft 104 kts 105°
2026-04-30 18:03 45.69128 5.90272 1376 ft 113 kts 333°
2026-04-30 18:04 45.69292 5.87365 1386 ft 117 kts 197°
2026-04-30 18:05 45.66585 5.87786 1012 ft 80 kts 177°
2026-04-30 18:06 45.64619 5.87956 781 ft 58 kts 176°
2026-04-30 18:07 45.63157 5.88899 965 ft 91 kts 109°
2026-04-30 18:08 45.64584 5.91071 1474 ft 122 kts 349°
2026-04-30 18:09 45.67301 5.88685 1148 ft 115 kts 292°
2026-04-30 18:10 45.65574 5.87232 957 ft 113 kts 139°
2026-04-30 18:11 45.63664 5.88034 819 ft 64 kts 178°
2026-04-30 18:11 45.62312 5.88877 1139 ft 97 kts 110°
2026-04-30 18:12 45.63130 5.91524 1393 ft 118 kts 20°
2026-04-30 18:13 45.64686 5.90853 1490 ft 123 kts 346°
2026-04-30 18:13 45.66076 5.88565 1466 ft 114 kts 273°
2026-04-30 18:14 45.66806 5.86305 1149 ft 133 kts
2026-04-30 18:15 45.66795 5.87741 1108 ft 82 kts 174°
2026-04-30 18:15 45.64953 5.87930 883 ft 87 kts 178°
2026-04-30 18:16 45.63880 5.88015 773 ft 60 kts 175°
2026-04-30 18:16 45.63403 5.88078 776 ft 24 kts 182°
2026-04-30 18:17 45.63266 5.88081 778 ft 14 kts 172°
2026-04-30 18:17 45.63143 5.88150 779 ft 15 kts 81°
2026-04-30 18:17 45.63460 5.88255 776 ft 24 kts 356°
2026-04-30 18:18 45.63641 5.88241 775 ft 33 kts 357°
2026-04-30 18:18 45.63806 5.88237 773 ft 20 kts 10°
2026-04-30 18:18 45.63898 5.88240 773 ft 11 kts 358°
2026-04-30 18:18 45.63961 5.88236 773 ft 4 kts 356°
2026-04-30 18:19 45.63986 5.88232 772 ft 3 kts 356°
2026-04-30 18:19 45.64019 5.88231 772 ft 11 kts 356°
2026-04-30 18:19 45.64064 5.88226 772 ft 7 kts 359°
2026-04-30 18:19 45.64080 5.88234 772 ft 1 kts 58°
2026-04-30 18:20 45.64081 5.88256 772 ft 2 kts 86°
2026-04-30 18:20 45.64081 5.88264 772 ft 0 kts 82°